Wind_Speed
51 52 52 54 55 57 58 60 62 63 63 64 65 65 65 64 64 63 61 60 60 60 62 64 66 68 68 69 70 70 71 73 74 73 72 71 70 70 69 67 64 60 56
50 51 52 53 55 57 59 62 63 63 64 64 64 64 64 63 63 61 60 59 59 60 62 64 66 67 68 68 69 69 70 72 74 74 70 69 68 67 66 63 60 58 56
50 50 51 53 56 58 60 62 63 63 63 63 63 62 62 61 60 59 58 57 58 60 62 64 65 66 66 67 68 68 69 71 72 72 69 67 65 64 62 59 56 55 54
51 52 53 55 57 59 60 61 62 62 62 62 61 60 59 58 58 57 56 57 58 59 62 63 64 65 65 66 66 67 68 69 70 70 68 65 63 62 60 57 54 53 52
52 53 55 56 58 59 60 60 60 60 59 58 57 56 56 56 55 55 55 56 57 59 61 62 63 63 64 65 65 65 67 68 68 68 66 64 63 61 59 56 54 52 49
54 55 56 57 57 57 57 56 55 55 54 53 53 54 54 53 53 53 54 55 57 58 60 61 62 62 63 64 64 64 65 66 66 65 64 63 61 59 57 54 53 51 48
55 55 55 55 54 53 52 51 51 51 49 49 50 52 51 51 51 52 53 55 56 57 59 60 60 61 62 62 62 62 62 62 63 62 62 60 59 57 55 52 51 49 47
52 52 51 50 49 49 48 48 48 48 48 49 50 50 50 50 51 53 54 55 56 57 58 59 59 60 60 61 60 59 59 59 58 58 59 57 56 54 52 51 50 47 44
50 49 49 48 47 47 47 47 47 47 48 48 49 50 50 52 53 53 55 55 56 57 57 58 58 59 59 60 59 58 57 56 55 55 56 55 53 52 51 50 48 45 41
50 50 49 48 48 48 48 48 48 48 48 49 50 50 51 52 54 55 55 55 55 56 56 57 57 58 58 58 57 56 55 54 52 53 52 51 50 48 48 48 46 43 39
50 50 49 49 49 49 49 50 50 50 50 50 51 52 53 54 55 55 55 55 55 55 55 55 56 57 56 56 55 54 53 52 51 51 50 49 47 46 45 44 42 39 36
50 50 50 50 51 51 51 51 51 51 51 52 53 54 54 55 55 55 55 54 54 53 54 54 55 55 54 53 52 51 50 49 49 49 48 47 44 44 42 41 39 36 33
51 51 52 52 52 52 53 53 53 53 54 54 55 55 56 56 55 55 54 53 52 52 52 53 53 53 52 50 49 48 48 47 46 46 45 44 42 41 40 37 35 32 29
53 53 53 53 53 54 54 54 54 55 55 55 55 56 56 55 55 54 52 51 51 50 50 51 51 50 49 48 47 46 45 44 44 43 42 41 39 39 37 34 32 28 26
54 53 53 53 54 54 54 54 55 55 55 55 56 55 55 54 53 52 50 49 49 48 48 48 48 47 47 45 44 43 43 42 42 41 40 38 36 36 34 31 29 25 22
53 53 53 53 53 53 53 53 54 54 54 54 54 54 54 53 52 50 49 47 47 46 45 46 45 45 44 42 41 41 41 40 39 38 37 35 33 32 30 28 25 22 19
52 52 51 51 52 52 52 53 53 53 53 53 53 53 53 51 50 48 47 45 44 43 43 43 42 41 40 39 38 38 38 37 37 36 35 32 30 29 27 24 21 19 16
50 50 51 51 51 51 51 51 52 51 51 52 53 53 52 50 48 46 44 42 40 39 39 39 39 38 37 36 35 35 35 35 34 34 32 29 27 26 24 21 18 16 14
50 49 49 49 49 50 50 51 50 51 52 52 52 52 51 48 45 42 40 38 36 36 36 36 35 35 34 33 33 33 33 33 32 31 30 27 24 23 21 18 15 14 12
48 48 48 48 48 48 49 49 50 51 51 51 50 49 46 42 39 36 35 33 33 33 32 32 32 32 31 31 31 31 31 30 30 30 27 24 22 21 18 16 13 12 10
46 46 47 47 47 48 48 49 49 50 49 48 46 44 40 37 34 32 30 29 29 29 29 29 29 29 29 29 29 29 29 28 28 28 26 23 20 18 16 13 11 9 8
44 45 45 45 46 46 47 47 48 47 46 43 40 38 36 33 31 28 26 25 26 25 25 26 26 27 27 27 27 27 27 27 27 26 24 21 18 15 13 11 9 8 6
43 43 44 44 45 45 45 45 45 44 42 39 37 36 33 30 26 24 23 22 22 22 23 23 24 24 25 25 25 25 25 25 25 23 22 19 16 13 10 9 8 7 5
42 42 42 43 43 43 43 44 43 41 39 36 34 32 28 25 22 21 19 19 19 19 20 20 22 22 23 23 24 24 23 23 23 21 20 18 14 10 8 7 6 4 4
40 41 41 42 42 42 42 42 40 38 35 32 29 26 23 21 19 17 16 16 16 16 17 19 20 21 22 22 22 22 22 21 21 20 19 16 12 9 7 5 4 4 3
39 40 40 41 41 41 40 39 36 33 30 27 24 22 20 18 16 15 13 13 13 14 15 17 18 19 20 21 21 21 20 20 20 19 17 15 11 8 5 4 4 3 3
Wind_Direction
290 289 289 289 290 291 292 293 294 296 297 298 299 299 300 300 300 300 301 301 301 302 302 303 304 305 307 307 308 309 310 311 313 315 314 314 313 312 311 310 310 308 307
291 291 290 290 291 292 293 294 295 296 297 298 299 299 299 299 299 299 299 299 300 301 302 304 305 306 307 307 308 310 311 312 314 315 316 315 315 313 312 311 310 308 308
294 293 292 292 292 293 294 294 295 295 296 297 297 298 298 298 298 298 297 297 298 300 302 303 304 306 307 308 309 310 312 313 314 316 317 316 316 315 313 312 310 309 308
295 294 293 292 292 293 294 295 295 295 296 296 296 297 297 297 297 297 297 297 298 299 302 303 304 306 307 308 310 311 313 314 315 316 317 317 317 317 315 314 313 311 310
295 294 293 293 293 294 294 294 295 295 295 295 295 295 295 296 296 296 297 298 298 299 301 303 305 306 307 309 310 312 313 314 316 317 318 319 320 319 318 316 315 314 313
294 294 293 293 294 293 294 294 294 294 294 295 295 295 295 296 295 294 296 297 298 300 301 303 305 307 308 309 311 313 314 316 317 319 320 321 321 320 319 318 317 316 314
295 294 293 294 294 294 294 294 294 294 294 295 295 296 296 295 294 294 296 297 299 299 301 303 305 307 308 309 311 313 315 317 318 319 321 321 321 321 320 319 318 317 315
297 295 294 295 295 295 295 295 295 294 294 295 295 296 296 295 295 295 296 297 298 299 300 302 305 307 308 310 312 314 316 317 318 319 320 321 322 322 321 321 320 319 317
298 297 295 295 295 296 296 296 295 295 295 295 295 296 296 296 296 296 296 297 297 299 300 302 305 307 308 310 312 315 317 318 319 320 321 322 323 323 322 323 322 321 320
298 296 295 295 295 295 296 296 295 295 296 296 296 296 296 296 296 297 297 297 298 299 300 303 305 307 308 310 313 316 318 319 320 321 322 323 323 323 323 324 324 323 322
297 296 295 295 295 295 295 295 296 296 296 296 296 296 296 297 297 297 297 297 298 299 300 302 305 307 309 311 314 316 319 320 321 323 323 324 324 324 325 325 325 325 324
296 296 295 295 295 295 295 295 295 296 296 296 297 297 297 297 297 297 297 298 298 299 300 302 304 306 309 312 314 317 319 321 322 324 324 325 325 326 326 327 327 327 327
295 295 295 295 295 295 295 295 295 296 296 297 297 297 297 297 298 298 297 297 297 298 300 302 304 306 309 312 315 318 320 321 323 324 325 326 326 327 328 328 329 329 329
294 295 296 296 296 296 297 296 296 296 297 297 298 298 298 298 299 298 297 297 297 298 300 302 304 306 309 313 316 319 321 322 324 326 327 327 328 329 329 330 330 330 331
295 296 296 296 297 297 298 298 298 298 299 299 299 299 300 299 298 298 297 296 296 297 299 301 303 306 310 313 317 320 322 324 326 327 328 328 329 330 330 331 331 332 333
296 297 297 297 298 298 299 299 299 300 300 301 301 301 301 300 299 297 296 296 296 296 298 301 303 306 310 314 318 321 323 325 326 327 329 329 329 330 331 332 332 334 336
299 299 300 300 300 300 301 301 301 302 302 302 302 302 301 300 299 297 296 294 295 295 298 300 303 306 311 315 319 322 324 326 327 328 329 329 330 331 332 333 334 336 338
301 301 302 302 302 303 303 303 304 304 304 304 304 303 302 300 298 295 294 293 293 294 297 300 303 307 312 317 320 323 325 326 327 329 329 329 330 332 332 333 334 336 339
302 303 303 304 304 304 304 305 306 306 306 306 306 305 304 301 297 293 291 290 291 293 296 299 303 308 313 318 322 324 326 327 328 330 330 329 328 330 331 331 331 335 340
303 304 305 305 305 306 307 307 307 308 308 308 308 307 306 303 298 293 290 288 289 292 296 300 304 310 316 320 323 325 327 329 330 330 330 328 327 328 328 326 326 327 331
305 306 306 306 307 308 308 308 308 310 310 310 309 309 307 304 299 295 290 288 289 292 297 301 306 312 318 323 325 327 328 330 331 332 331 329 326 324 324 322 322 325 325
307 307 308 308 308 309 309 310 310 311 312 311 310 311 310 305 300 295 290 288 290 293 297 303 309 315 321 325 327 329 330 332 333 334 334 331 327 324 322 320 315 316 319
308 308 309 310 310 311 311 311 311 312 312 310 310 311 309 305 299 295 290 288 291 295 299 306 313 319 324 328 329 331 332 334 335 335 336 334 329 324 319 318 314 309 308
309 310 311 312 312 312 312 312 313 312 311 310 309 310 309 304 299 295 291 291 294 297 303 311 317 323 328 330 332 334 335 336 337 337 337 335 330 321 314 312 309 307 308
310 312 313 313 313 313 314 314 313 312 311 310 309 309 307 303 299 294 291 293 297 302 309 316 322 328 332 334 336 337 338 338 339 339 339 337 332 320 303 296 290 286 292
311 313 314 315 315 315 315 315 314 313 311 310 310 308 306 303 297 294 293 297 302 309 316 323 328 333 336 339 341 341 341 341 342 342 342 341 336 323 296 272 261 265 273
Height
5693 5688 5682 5676 5670 5663 5657 5650 5643 5637 5630 5624 5617 5609 5602 5595 5587 5579 5572 5564 5556 5548 5539 5530 5521 5510 5501 5490 5479 5468 5457 5445 5435 5426 5411 5397 5382 5367 5353 5339 5328 5318 5311
5679 5673 5668 5661 5655 5648 5642 5635 5628 5622 5615 5608 5601 5594 5586 5579 5571 5564 5556 5549 5541 5533 5524 5515 5505 5495 5485 5474 5463 5452 5441 5428 5416 5406 5395 5380 5366 5351 5338 5325 5313 5303 5294
5664 5658 5653 5646 5640 5633 5627 5620 5613 5606 5599 5592 5585 5578 5571 5563 5556 5549 5541 5534 5526 5518 5509 5500 5490 5480 5470 5459 5448 5437 5425 5413 5400 5388 5378 5365 5351 5337 5324 5312 5300 5290 5280
5649 5643 5637 5631 5624 5618 5611 5604 5597 5590 5583 5576 5569 5562 5555 5548 5541 5534 5526 5519 5512 5504 5495 5486 5476 5466 5456 5444 5433 5422 5410 5398 5386 5373 5362 5350 5337 5323 5309 5298 5288 5278 5267
5633 5627 5621 5615 5608 5601 5595 5588 5581 5574 5567 5560 5554 5547 5540 5533 5526 5519 5512 5505 5497 5489 5481 5471 5461 5452 5441 5430 5420 5408 5396 5384 5372 5359 5347 5335 5322 5308 5296 5284 5274 5265 5255
5617 5611 5605 5598 5592 5585 5578 5571 5565 5558 5551 5545 5539 5532 5525 5519 5512 5504 5497 5490 5483 5475 5466 5457 5448 5438 5428 5417 5406 5394 5382 5370 5358 5346 5334 5321 5309 5296 5284 5272 5261 5251 5244
5601 5595 5588 5582 5575 5569 5562 5556 5549 5543 5537 5531 5524 5517 5511 5505 5497 5490 5483 5476 5469 5461 5452 5443 5435 5425 5414 5404 5393 5382 5370 5357 5345 5333 5321 5309 5297 5286 5273 5263 5252 5241 5231
5586 5579 5573 5566 5560 5554 5547 5541 5535 5529 5523 5517 5510 5504 5497 5491 5483 5477 5470 5463 5455 5447 5439 5430 5422 5412 5402 5392 5382 5371 5359 5347 5335 5323 5311 5300 5287 5275 5263 5252 5241 5231 5222
5571 5565 5558 5552 5546 5540 5534 5528 5521 5515 5509 5503 5496 5490 5484 5477 5470 5463 5455 5449 5442 5434 5426 5417 5409 5400 5390 5380 5371 5361 5350 5338 5326 5314 5301 5289 5277 5265 5253 5243 5232 5222 5214
5557 5551 5544 5538 5533 5527 5521 5514 5508 5502 5496 5489 5483 5477 5470 5464 5456 5449 5442 5435 5428 5421 5413 5405 5397 5388 5378 5367 5358 5349 5339 5328 5317 5306 5294 5282 5270 5259 5247 5236 5225 5215 5206
5544 5537 5531 5525 5519 5513 5507 5501 5494 5488 5482 5476 5470 5463 5456 5449 5442 5435 5428 5422 5414 5407 5400 5392 5384 5375 5366 5356 5347 5338 5328 5318 5307 5296 5285 5274 5263 5252 5241 5230 5220 5209 5201
5530 5524 5517 5511 5505 5499 5493 5487 5480 5474 5468 5461 5455 5448 5442 5435 5428 5421 5414 5408 5401 5394 5387 5380 5372 5363 5354 5345 5336 5327 5318 5308 5298 5287 5277 5266 5256 5245 5235 5225 5215 5206 5197
5516 5509 5503 5497 5490 5484 5478 5472 5466 5459 5453 5447 5440 5434 5427 5420 5413 5406 5400 5393 5387 5381 5374 5367 5360 5352 5343 5335 5326 5318 5309 5300 5290 5280 5269 5259 5249 5240 5230 5221 5212 5203 5195
5501 5495 5489 5483 5476 5470 5463 5457 5450 5444 5438 5432 5425 5419 5412 5405 5399 5392 5386 5380 5374 5368 5362 5356 5349 5341 5333 5325 5317 5309 5300 5292 5282 5273 5263 5253 5243 5234 5225 5217 5209 5201 5194
5486 5480 5474 5468 5461 5455 5449 5442 5436 5429 5423 5417 5410 5404 5397 5391 5384 5378 5373 5367 5362 5356 5351 5345 5338 5331 5324 5316 5309 5301 5292 5284 5275 5265 5256 5247 5239 5230 5222 5214 5207 5200 5194
5471 5465 5459 5453 5447 5440 5434 5428 5421 5415 5408 5401 5395 5389 5382 5376 5370 5365 5359 5354 5349 5344 5339 5334 5328 5322 5315 5308 5300 5293 5285 5277 5268 5260 5251 5243 5235 5227 5219 5212 5206 5200 5194
5456 5450 5444 5438 5432 5426 5420 5414 5408 5401 5394 5387 5381 5374 5368 5362 5356 5351 5346 5341 5337 5333 5329 5324 5318 5312 5306 5299 5293 5286 5278 5270 5262 5254 5246 5238 5231 5224 5217 5211 5205 5200 5195
5441 5436 5430 5424 5418 5412 5406 5399 5393 5387 5380 5373 5367 5360 5353 5347 5342 5337 5333 5329 5326 5323 5319 5315 5309 5304 5298 5292 5286 5279 5272 5264 5257 5249 5242 5234 5228 5222 5215 5210 5205 5200 5196
5429 5423 5417 5411 5405 5399 5392 5386 5380 5373 5366 5359 5352 5345 5339 5333 5328 5324 5321 5318 5316 5313 5310 5306 5301 5296 5291 5285 5279 5273 5266 5259 5252 5244 5237 5231 5225 5219 5214 5209 5205 5201 5197
5416 5410 5404 5398 5392 5386 5380 5373 5367 5360 5353 5345 5338 5331 5325 5320 5316 5312 5310 5308 5306 5304 5301 5298 5294 5289 5284 5278 5273 5267 5261 5254 5247 5240 5233 5227 5222 5217 5212 5208 5204 5201 5198
5404 5398 5392 5386 5380 5374 5367 5360 5354 5347 5340 5332 5325 5319 5313 5309 5305 5302 5301 5300 5298 5296 5294 5291 5287 5282 5278 5272 5267 5261 5255 5249 5242 5236 5230 5224 5219 5214 5210 5206 5203 5201 5198
5392 5386 5380 5374 5368 5362 5355 5348 5341 5335 5328 5321 5315 5309 5304 5300 5296 5294 5293 5292 5291 5289 5287 5284 5281 5277 5272 5267 5262 5257 5251 5245 5238 5232 5226 5221 5216 5212 5209 5205 5203 5200 5199
5381 5375 5369 5363 5357 5350 5343 5337 5330 5323 5317 5311 5306 5301 5296 5292 5289 5287 5286 5286 5285 5283 5281 5279 5275 5271 5267 5262 5257 5252 5246 5241 5235 5229 5224 5219 5214 5211 5208 5205 5202 5200 5199
5370 5364 5358 5352 5345 5339 5332 5325 5319 5312 5306 5301 5297 5292 5288 5285 5283 5282 5281 5281 5280 5278 5276 5274 5271 5267 5262 5258 5253 5248 5243 5237 5232 5226 5221 5217 5213 5209 5207 5205 5203 5201 5199
5360 5354 5348 5341 5335 5328 5321 5314 5308 5302 5297 5292 5289 5285 5283 5281 5279 5278 5277 5276 5276 5274 5272 5270 5266 5263 5259 5254 5249 5244 5239 5234 5229 5224 5219 5215 5211 5208 5206 5204 5203 5201 5200
5350 5344 5338 5331 5324 5317 5311 5304 5298 5293 5289 5285 5282 5280 5278 5276 5275 5274 5274 5273 5272 5271 5269 5266 5263 5259 5255 5251 5246 5241 5236 5232 5227 5222 5217 5213 5210 5207 5205 5204 5203 5202 5201